TimeEDT,TemperatureF,Dew PointF,Humidity,Sea Level PressureIn,VisibilityMPH,Wind Direction,Wind SpeedMPH,Gust SpeedMPH,PrecipitationIn,Events,Conditions,WindDirDegrees,DateUTC
12:54 AM,54.0,53.1,97,30.16,10.0,SSE,4.6,-,N/A,,Overcast,150,2013-05-20 04:54:00
1:54 AM,54.0,53.1,97,30.14,10.0,South,4.6,-,N/A,,Overcast,170,2013-05-20 05:54:00
2:54 AM,54.0,53.1,97,30.11,10.0,Calm,Calm,-,N/A,,Overcast,0,2013-05-20 06:54:00
4:21 AM,53.6,53.6,100,30.07,10.0,SSE,3.5,-,N/A,,Overcast,160,2013-05-20 08:21:00
4:54 AM,54.0,53.1,97,30.07,10.0,South,3.5,-,N/A,,Overcast,190,2013-05-20 08:54:00
5:28 AM,53.6,53.6,100,30.05,10.0,Calm,Calm,-,N/A,,Overcast,0,2013-05-20 09:28:00
5:54 AM,54.0,54.0,100,30.06,10.0,Calm,Calm,-,N/A,,Overcast,0,2013-05-20 09:54:00
6:30 AM,55.4,53.6,94,30.05,10.0,Calm,Calm,-,N/A,,Overcast,0,2013-05-20 10:30:00
6:54 AM,55.9,54.0,93,30.05,10.0,SE,3.5,-,N/A,,Overcast,130,2013-05-20 10:54:00
7:54 AM,57.0,55.0,93,30.05,10.0,Calm,Calm,-,N/A,,Mostly Cloudy,0,2013-05-20 11:54:00
8:54 AM,61.0,57.0,87,30.06,10.0,Calm,Calm,-,N/A,,Scattered Clouds,0,2013-05-20 12:54:00
10:28 AM,66.2,57.2,73,30.04,10.0,NE,4.6,-,N/A,,Mostly Cloudy,50,2013-05-20 14:28:00
10:54 AM,68.0,57.0,68,30.04,10.0,Variable,5.8,-,N/A,,Overcast,0,2013-05-20 14:54:00
11:46 AM,69.8,57.2,64,30.02,10.0,NW,8.1,-,N/A,,Scattered Clouds,320,2013-05-20 15:46:00
11:54 AM,70.0,57.9,65,30.02,10.0,NW,5.8,-,N/A,,Scattered Clouds,310,2013-05-20 15:54:00
12:54 PM,73.0,57.9,59,29.99,10.0,West,9.2,-,N/A,,Scattered Clouds,280,2013-05-20 16:54:00
1:54 PM,71.1,57.9,63,30.00,10.0,Variable,4.6,-,N/A,,Mostly Cloudy,0,2013-05-20 17:54:00
2:54 PM,73.0,59.0,61,29.98,10.0,NNW,8.1,-,N/A,,Overcast,330,2013-05-20 18:54:00
3:54 PM,73.9,59.0,59,29.96,10.0,NW,5.8,-,N/A,,Mostly Cloudy,320,2013-05-20 19:54:00
4:54 PM,73.9,59.0,59,29.98,10.0,WNW,5.8,-,N/A,,Partly Cloudy,300,2013-05-20 20:54:00
5:54 PM,73.9,59.0,59,29.98,10.0,NW,6.9,-,N/A,,Scattered Clouds,320,2013-05-20 21:54:00
6:54 PM,73.0,60.1,64,29.97,10.0,Variable,3.5,-,N/A,,Mostly Cloudy,0,2013-05-20 22:54:00
7:54 PM,70.0,61.0,73,29.98,10.0,Calm,Calm,-,N/A,,Partly Cloudy,0,2013-05-20 23:54:00
8:54 PM,64.0,61.0,90,29.99,10.0,South,3.5,-,N/A,,Partly Cloudy,180,2013-05-21 00:54:00
10:54 PM,61.0,60.1,97,30.00,8.0,Calm,Calm,-,N/A,,Clear,0,2013-05-21 02:54:00
11:54 PM,60.1,59.0,96,30.01,7.0,Calm,Calm,-,N/A,,Scattered Clouds,0,2013-05-21 03:54:00